Weather in Zelenchukskaya

Russia / Karachay-Cherkess Republic     43°51′39″N   41°34′58″E
temp.,
°C
wind,
m/s
gust,
m/s
humid.,
%
clouds,
%
prec.,
mm/h
press.,
hPa
HPBL,
m
16 may, sun
sun1600:00+10ssw32813 0.0 101435
03:00+10ssw337133 0.0 101340
06:00+12ssw33645 0.0 101244
09:00+21nne11406 0.0 1009561
12:00+23nne333824 0.0 10071313
15:00+23nne324632 0.0 10061250
18:00+19ene12791 1.3 1006115
21:00+12ssw4477100 1.3 100854
17 may, mon
mon1700:00+12ssw4665100 0.0 100774
03:00+12ssw46615 0.0 100775
06:00+13ssw4459100 0.0 100765
09:00+20n2145100 0.0 1006495
12:00+22nne324899 0.0 10061009
15:00+17nne3489100 1.7 1008497
18:00+13ene1296100 4.3 1009130
21:00+12s119696 9.9 101147
18 may, tue
tue1800:00+11sw1195100 4.1 101034
03:00+10sw1195100 7.9 101051
06:00+10ene1195100 1.3 1012118
09:00+10nne2296100 3.5 1012258
12:00+13n1177100 0.6 1011572
15:00+15n227622 3.0 1011827
18:00+13nne229030 2.9 1012302
21:00+9ssw219351 3.5 101421
19 may, wed
wed1900:00+6ssw328325 0.0 101542
03:00+7s3378100 0.0 101448
06:00+9sw237567 0.0 101484
09:00+15se14545 0.1 10141046
12:00+19sw264015 0.0 10132217
15:00+19nw153720 0.1 10132127
18:00+12ne348928 0.9 1017373
21:00+10ne019775 1.2 1019101
20 may, thu
thu2000:00+7ssw118132 0.1 101925
03:00+5ssw22729 0.1 101921
06:00+8s22630 0.0 101725
09:00+16nne21422 0.0 1014391
12:00+22nne34360 0.0 10111043
15:00+22nne32442 0.0 1011705
18:00+19nne23690 0.0 1011208
21:00+14s32661 0.0 101236